Location: Austin, TX
(30.3000°N, 97.7500°W)
Time: 00:24:30
(UTC-05:00)

Daily predictions for brighter satellites

Satellite Brightness Start Highest point End
(mag) Time Altitude Azimuth Time Altitude Azimuth Time Altitude Azimuth
FALCON 9 R/B 4.4 03:17:39 66° NE 03:17:39 66° NE 03:46:24 10° E
Milstar 3 4.5 04:07:27 75° WSW 04:09:20 83° S 04:35:30 10° E
Cosmos 2219 Rocket 3.5 04:48:29 31° ESE 04:49:05 32° ESE 04:53:59 10° NE
COSMOS 2428 3.4 04:51:56 50° NE 04:51:56 50° NE 04:56:15 10° NNE
Okean O Rocket 3.5 04:51:40 10° NNE 04:54:01 28° NE 04:54:01 28° NE
Aureole 3 Rocket 4.3 04:59:50 79° WSW 05:00:10 81° W 05:09:22 10° N
Lacrosse 4 Rocket 3.3 05:03:25 29° E 05:03:25 29° E 05:06:25 10° SE
Cosmos 2360 Rocket 3.8 05:09:37 23° NNW 05:09:37 23° NNW 05:12:04 10° N
Cosmos 2184 Rocket 4.0 05:07:12 10° N 05:12:43 69° NW 05:12:43 69° NW
Cosmos 2237 Rocket 3.7 05:13:00 15° SSE 05:17:00 32° ESE 05:21:59 10° NE
ADEOS II 2.2 05:12:48 10° NNE 05:18:03 71° ESE 05:18:43 63° SSE
Cosmos 2208 Rocket 4.4 05:29:24 51° NW 05:29:24 51° NW 05:33:59 10° N
GOES 2 Rocket 3.3 05:30:18 72° SSE 05:30:18 72° SSE 05:35:45 10° E
USA 215 4.2 05:26:20 10° ESE 05:32:31 46° NE 05:38:42 10° NNW
Cosmos 2333 Rocket 2.3 05:35:41 33° S 05:38:18 75° ESE 05:44:01 10° NNE
Cosmos 1743 3.0 05:35:22 10° N 05:39:11 64° E 05:40:33 36° SSE
USA 229 DEB 3.6 05:38:15 44° SW 05:40:36 76° WNW 05:47:32 10° NNE
USA 229 3.6 05:38:19 43° SW 05:40:42 76° WNW 05:47:37 10° NNE
PAYLOAD B 4.2 05:35:47 10° N 05:41:19 63° WNW 05:42:35 50° SW
PSLV R/B 3.6 05:41:46 10° N 05:45:55 61° WNW 05:45:55 61° WNW
Cosmos 2154 Rocket 3.8 05:41:12 10° N 05:47:25 80° W 05:53:36 10° S
Okean 1-7 Rocket 3.7 05:45:35 24° S 05:48:16 79° E 05:52:45 10° N
EO 1 Del DPAF 3.1 05:48:44 64° S 05:49:15 81° WSW 05:53:07 10° NNW
Meteor 1-31 Rocket 3.7 05:45:38 10° NNE 05:49:19 47° E 05:52:45 11° S
OTV 4 1.5 05:56:10 39° ESE 05:56:10 39° ESE 05:58:20 10° ENE
NOSS 3-1 (C) 4.0 05:50:45 12° S 05:55:50 52° ESE 06:01:43 10° NE
Hubble Space Telescope 1.6 05:59:49 33° SSW 06:00:46 38° SSE 06:04:37 10° E
Cosmos 2181 Rocket 3.9 05:56:12 10° SSW 06:02:21 72° W 06:08:37 10° N
Meteor PRIRODA 3.5 05:59:00 10° N 06:02:45 72° WNW 06:04:11 35° SSW
Cosmos 468 Rocket 3.9 06:02:26 27° SW 06:05:09 62° WNW 06:10:19 10° N
SL-8 Rocket 4.5 06:01:05 10° N 06:07:13 63° E 06:13:17 10° SSE
Tiangong 2 3.1 06:06:42 15° NNW 06:08:29 25° NNE 06:11:08 10° E
Cosmos 1844 3.9 06:05:01 10° NNW 06:10:47 75° ENE 06:16:26 10° SSE
GPS 2-04 Rocket1 2.6 06:10:39 39° W 06:12:00 75° NNW 06:15:49 10° ENE
Cosmos 1898 Rocket 3.9 06:07:02 10° N 06:12:11 63° ENE 06:17:17 10° SSE
SL-16 R/B 3.5 06:08:11 10° S 06:13:26 41° ESE 06:18:44 10° NE
CZ-4B R/B 4.0 06:12:56 10° N 06:17:48 31° WNW 06:20:11 22° WSW
ERS-2 2.4 06:17:55 10° N 06:21:26 44° WNW 06:23:41 20° SW
VEP-3 3.8 06:12:51 19° WSW 06:23:29 55° S 06:29:05 10° ESE
Cosmos 1980 3.8 06:19:16 15° SW 06:23:53 52° WNW 06:29:23 10° N
CZ-2C R/B 4.3 06:22:37 10° SSW 06:26:49 35° W 06:30:59 10° NNW
Cosmos 2341 Rocket 4.2 06:22:14 10° NNW 06:28:10 48° W 06:34:04 10° SSW
COSMO-SKYMED 1 4.1 06:26:05 10° SE 06:30:06 39° ENE 06:34:09 10° N
Okean O Rocket 3.6 06:30:08 10° NW 06:31:30 12° WNW 06:31:30 12° WNW
Cosmos 1025 Rocket 3.6 06:28:25 10° SSW 06:32:26 36° W 06:36:30 10° NNW
Cosmos 1763 Rocket 3.4 06:27:33 10° SSW 06:32:33 67° WNW 06:37:38 10° N
Cosmos 2219 Rocket 3.2 06:30:15 18° WSW 06:32:57 26° WNW 06:37:34 10° N
Cosmos 1437 3.1 06:30:31 11° SSW 06:33:31 42° W 06:36:39 10° N
Cosmos 858 Rocket 4.5 06:29:05 10° NNW 06:34:22 89° WSW 06:39:36 10° SSE
Cosmos 2218 Rocket 4.1 06:28:02 10° N 06:34:25 89° E 06:40:43 10° S
COSMOS 2428 4.4 06:33:59 13° WNW 06:35:20 14° WNW 06:38:07 10° NNW
Cosmos 1726 Rocket 3.7 06:35:24 10° N 06:39:52 79° E 06:44:19 10° S
Lacrosse 4 Rocket 3.0 06:40:03 15° W 06:40:58 16° WSW 06:43:37 10° SW
Cosmos 1937 Rocket 3.6 06:36:02 10° NNW 06:41:22 87° ENE 06:46:38 10° SSE
Cosmos 1892 Rocket 3.5 06:39:07 10° SSW 06:43:22 59° W 06:47:40 10° N
Meteor 2-9 Rocket 4.3 06:38:12 10° NNW 06:43:37 51° W 06:48:52 10° SSW
Cosmos 1844 Rocket 3.2 06:40:51 10° NW 06:45:53 36° WSW 06:50:52 10° SSW
USA 116 4.3 06:42:14 10° SSW 06:46:02 41° W 06:50:18 10° NNW
Okean-O 3.3 06:42:05 10° N 06:46:02 33° WNW 06:49:59 10° SW
Cosmos 841 Rocket 3.5 06:41:26 10° SSW 06:46:31 61° WNW 06:51:37 10° N
Radarsat Rocket 3.9 06:42:25 10° NNE 06:48:16 81° WNW 06:54:09 10° SSW
NOAA 6 4.2 06:49:43 10° N 06:54:39 50° WNW 06:59:34 10° SSW
Cosmos 1441 Rocket 3.4 06:50:57 10° SSW 06:54:47 54° W 06:58:42 10° N
Aureole 2 Rocket 4.2 06:53:48 10° WSW 06:56:10 16° WNW 06:58:25 10° NNW
ADEOS II 3.9 06:55:47 10° NW 06:57:05 11° WNW 06:58:25 10° W
Cosmos 1515 4.0 06:55:49 10° SSW 06:59:29 44° W 07:03:11 10° N
Cosmos 540 Rocket 3.8 06:55:28 10° S 07:00:33 73° ESE 07:05:38 10° NNE
Cosmos 2237 Rocket 3.2 06:56:16 10° WSW 07:00:58 27° WNW 07:05:44 10° N
Cosmos 2298 Rocket 4.3 06:55:57 10° NNW 07:01:01 46° WSW 07:06:05 10° S
Cosmos 405 Rocket 4.2 06:58:13 10° SW 07:01:11 19° WNW 07:04:10 10° NNW
Cosmos 2278 Rocket 2.2 06:56:11 10° NNW 07:01:49 71° WSW 07:07:26 10° S
Cosmos 371 Rocket 3.8 07:00:29 10° SW 07:05:00 39° WNW 07:09:34 10° N
Cosmos 1626 Rocket 3.9 07:00:44 10° S 07:05:08 75° E 07:09:36 10° N
